Location: Bern�tre
(50.1974°N, 2.0915°E)
Time: 05:43:31
(UTC+00:00)

USA 234 - Pass Details

Date: 18 September 2020
Orbit: 1102 x 1106 km, 123.0° (Epoch: 16 October)

Event Time Altitude Azimuth Distance (km) Brightness Sun altitude
Rises 18:34:31 0° 62° (ENE) 3,927 5.7 -6.7°
Reaches altitude 10° 18:37:49 10° 78° (ENE) 2,966 5.0 -7.2°
Maximum altitude 18:42:26 20° 124° (SE) 2,295 4.4 -7.9°
Drops below altitude 10° 18:47:03 10° 169° (S) 2,956 5.3 -8.6°
Sets 18:50:18 0° 186° (S) 3,910 6.1 -9.1°
